Regional Weather Roundup
Issued by NWS Kansas City/Pleasant Hill, MO

Home | Current Version | Previous Version | Graphics & Text | Print | Product List | Glossary Off
Versions: 1 2 3 4 5 6 7 8 9 10 11 12 13 14 15 16 17 18 19 20 21 22 23 24 25 26 27 28 29 30 31 32 33 34 35 36 37 38 39 40 41 42 43 44 45 46 47 48 49 50

000
ASUS43 KEAX 281111
RWREAX

WEATHER ROUNDUP FOR EASTERN KANSAS AND NORTHWEST MISSOURI
NATIONAL WEATHER SERVICE KANSAS CITY/PLEASANT HILL MO
500 AM CST FRI NOV 28 2014

KSZ040-057-103>105-MOZ028-029-037-043-281200-
...KANSAS CITY METROPOLITAN AREA...

CITY           SKY/WX    TMP DP  RH WIND       PRES   REMARKS
K.C. INTL      CLEAR     33  23  66 S14       30.05F WCI  23
K.C. DOWNTOWN  CLEAR     35  23  61 S12       30.08F WCI  27
LEES SUMMIT    CLEAR     34  23  64 S12G20    30.09F WCI  25
OLATHE - IXD   CLEAR     33  23  66 S14       30.06F WCI  23
OLATHE - OJC   CLEAR     34  24  67 S13       30.07F WCI  25
LAWRENCE       CLEAR     34  24  67 S9        30.06F WCI  27

$$

MOZ001>008-011>017-020>025-030>033-038>040-044>046-053-054-281200-
...NORTHERN AND CENTRAL MISSOURI...

CITY           SKY/WX    TMP DP  RH WIND       PRES   REMARKS
ST. JOSEPH     CLEAR     31  23  72 S12       30.04F WCI  22
MOSBY          SUNNY     30  25  80 SE7       30.08F WCI  23
WARRENSBURG    CLEAR     32  25  74 SE8       30.13F WCI  25
WHITEMAN AFB   CLEAR     31  24  73 S10       30.13F WCI  23
CLINTON        CLEAR     34  28  80 S9        30.15F WCI  26
SEDALIA        CLEAR     31  24  75 SE10      30.16F WCI  22
WARSAW         NOT AVBL
MARSHALL       CLEAR     32  27  80 SE8       30.16F WCI  25
CHILLICOTHE      N/A     30  23  75 SE10      30.11F WCI  21
KIRKSVILLE     CLEAR     22  20  92 S14       30.14F WCI   9

$$

MOZ041-047>049-056>058-063>065-088>090-097-281200-
...EASTERN AND SOUTHERN MISSOURI...

CITY           SKY/WX    TMP DP  RH WIND       PRES   REMARKS
ST. LOUIS INTL PTCLDY    26  20  77 SE9       30.31F WCI  17
SPIRIT OF STL  CLEAR     26  21  81 SE8       30.30F WCI  18
COLUMBIA       CLEAR     29  23  78 SE10      30.20F WCI  20
JEFFERSON CITY CLEAR     29  23  78 E7        30.22F WCI  22
MEXICO         CLEAR     28  27  93 SE10      30.22F WCI  19
ROLLA          CLEAR     28  22  78 SE10      30.21F WCI  19
LEBANON        CLEAR     32  25  74 S10       30.19F WCI  24
OSAGE BEACH    CLEAR     32  21  64 SE8       30.20F WCI  25
SPRINGFIELD    CLEAR     33  24  69 S16       30.18F WCI  23
BRANSON        CLEAR     32  25  74 S8        30.23F WCI  25
NEVADA         CLEAR     36  27  69 S13       30.14F WCI  27
JOPLIN         CLEAR     41  25  53 S18G25    30.16F WCI  32
WEST PLAINS    CLEAR     30  24  78 S6        30.28F WCI  24

$$

IAZ060-094-KSZ022-034>040-054-083-096-NEZ052-066-093-281200-
...KANSAS...SOUTHEAST NEBRASKA AND IOWA...

CITY           SKY/WX    TMP DP  RH WIND       PRES   REMARKS
TOPEKA         CLEAR     36  24  62 S7        30.04F WCI  30
MANHATTAN      CLEAR     33  24  69 SW7       30.00F WCI  27
EMPORIA        CLEAR     31  23  72 S15       30.03F WCI  20
CHANUTE        CLEAR     37  27  67 S17       30.11F WCI  27
WICHITA        PTCLDY    36  25  64 S13       30.04F WCI  27
OMAHA          PTCLDY    28  22  78 S12       29.97F WCI  18
LINCOLN        CLEAR     29  20  69 S5        29.94F WCI  24
FALLS CITY     CLEAR     31  23  72 S10       29.99F WCI  22
LAMONI         CLEAR     26  22  84 S14       30.02F WCI  14
DES MOINES     PTCLDY    19  13  77 E9        30.06F WCI   8

$$



USA.gov is the U.S. government's official web portal to all federal, state and local government web resources and services.